Home   Weather   Livonia   Past weeks

Flag for USA Past Weather in Livonia, Michigan, USA — Yesterday and Last 2 Weeks

Now
67 °F

Cloudy.


Feels Like: 67 °F
Forecast: 58 / 67 °F
Wind: 8 mph from South

Location: Detroit Metropolitan Wayne County Airport

Current Time: Oct 1, 2016 at 1:24:55 PM

Latest Report: Oct 1, 2016 at 12:53 PM


Visibility: 9 mi

Pressure: 30.05 "Hg

Humidity: 71%

Dew Point: 57 °F

Location of LivoniaLocation

Past Weather in Livonia — Graph

°F

Livonia Temperature Yesterday

Maximum temperature yesterday: 63 °F (at 8:53 AM)
Minimum temperature yesterday: 59 °F (at 10:53 PM)
Average temperature yesterday: 61 °F

High & Low Weather Summary for the Past Weeks

 TemperatureHumidityPressure
High86 °F (Sep 22, 1:53 PM)100% (Sep 17, 7:53 AM)30.27 "Hg (Sep 17, 7:53 AM)
Low50 °F (Sep 27, 5:53 AM)25% (Sep 27, 4:53 PM)29.73 "Hg (Sep 27, 2:53 PM)
Average66 °F77%30.05 "Hg
* Reported Sep 16 11:53 AM — Oct 1 11:53 AM, Livonia, Weather by CustomWeather, © 2016

Note: Actual official high and low records may vary slightly from our data, if they occured in-between our weather recording intervals... More about our weather records

Advertising

Livonia Weather History for the Previous 24 Hours

Scroll right to see more
 ConditionsComfort  
Time TempWeatherWind HumidityBarometerVisibility
11:53 AM
Sat, Oct 1
67 °FCloudy.9 mph76%30.06 "Hg8 mi
10:53 AM65 °FFog.8 mph87%30.07 "Hg6 mi
9:53 AM61 °FFog.6 mph100%30.07 "Hg3 mi
8:53 AM61 °FFog.6 mph97%30.06 "Hg2 mi
7:53 AM60 °FLight rain. Fog.5 mph100%30.06 "Hg2 mi
6:53 AM60 °FLight rain. Fog.7 mph100%30.06 "Hg4 mi
5:53 AM60 °FLight rain. Fog.8 mph100%30.05 "Hg2 mi
4:53 AM59 °FLight rain. Fog.7 mph100%30.05 "Hg2 mi
4:00 AM58 °FRain. Fog.7 mph100%30.06 "Hg2 mi
2:53 AM58 °FLight rain. Fog.6 mph100%30.07 "Hg1 mi
1:53 AM58 °FLight rain. Fog.7 mph100%30.08 "Hg2 mi
12:53 AM58 °FLight rain. Fog.7 mph97%30.09 "Hg2 mi
11:53 PM
Fri, Sep 30
59 °FLight rain. Fog.7 mph100%30.09 "Hg2 mi
10:53 PM59 °FLight rain. Fog.10 mph100%30.09 "Hg2 mi
9:53 PM61 °FFog.12 mph100%30.10 "Hg5 mi
8:53 PM61 °FLight rain. Mostly cloudy.6 mph100%30.11 "Hg8 mi
7:53 PM61 °FMostly cloudy.6 mph100%30.11 "Hg9 mi
6:53 PM61 °FLight rain. Fog.7 mph100%30.08 "Hg6 mi
5:53 PM61 °FLight rain. Mostly cloudy.8 mph97%30.11 "Hg7 mi
4:53 PM61 °FFog.12 mph97%30.09 "Hg6 mi
3:56 PM61 °FMostly cloudy.9 mph100%30.11 "Hg7 mi
2:53 PM61 °FFog.9 mph97%30.12 "Hg6 mi
1:53 PM61 °FLight rain. Fog.7 mph97%30.14 "Hg1 mi
Weather by CustomWeather, © 2016

See weather overviewHow to use our weather pages